This demonstration page uses our WeatherBlox Daily Observations layout. Learn more.

Left ArrowRight Arrow

44.8408, -93.29828

Hourly Observations for September 25, 2018

Temp ( °F °C ) Dew Point ( °F °C ) Humidity (%) Winds ( mph kmh ) Pressure ( in mb ) Visibility ( mi km ) Precip ( " mm )
12:24 am 00:24 Cloudy 59 15 58 14.4 96 96 NW 10 17 29.88 1012 10 16 0.00 0.00
12:53 am 00:53 Cloudy 59 15 58 14.4 96 96 NNW 7 11 29.87 1012 10 16 0.00 0.00
1:05 am 01:05 Cloudy 59 15 58 14.4 96 96 NNW 8 13 29.88 1012 10 16 0.00 0.00
1:36 am 01:36 Cloudy with Light Rain 57 13.9 56 13.3 96 96 NNW 13 20 29.88 1012 4 6 0.00 0.03
1:53 am 01:53 Cloudy 56 13.3 55 12.8 97 97 NW 14 22 29.89 1012 8 13 0.00 0.03
2:07 am 02:07 Cloudy 56 13.3 55 12.8 97 97 NNW 8 13 29.88 1012 9 14 0.00 0.00
2:24 am 02:24 Cloudy 56 13.3 55 12.8 97 97 NNW 9 15 29.88 1012 10 16 0.00 0.00
2:53 am 02:53 Cloudy 56 13.3 54 12.2 93 93 NW 10 17 29.89 1012 10 16 0.00 0.00
3:21 am 03:21 Cloudy 55 12.8 53 11.7 93 93 NNW 9 15 29.91 1013 10 16 0.00 0.00
3:51 am 03:51 Mostly Cloudy 54 12 52 11 94 94 NNW 12 19 29.94 1014 10 16 0.00 0.00
3:53 am 03:53 Cloudy 53 11.7 52 11.1 96 96 NNW 12 19 29.90 1013 10 16 0.00 0.00
4:03 am 04:03 Mostly Cloudy 53 11.7 52 11.1 96 96 NNW 9 15 29.94 1014 10 16 0.00 0.00
4:53 am 04:53 Cloudy 53 11.7 52 11.1 96 96 NNW 9 15 29.91 1013 10 16 0.00 0.00
5:42 am 05:42 Cloudy 52 11.1 51 10.6 97 97 NNW 7 11 29.94 1014 10 16 0.00 0.00
5:53 am 05:53 Cloudy 53 11.7 51 10.6 93 93 NNW 10 17 29.91 1013 10 16 0.00 0.00
6:53 am 06:53 Cloudy 53 11.7 51 10.6 93 93 NW 8 13 29.91 1013 10 16 0.00 0.00
7:53 am 07:53 Cloudy 53 11.7 50 10 89 89 NNW 9 15 29.91 1013 10 16 0.00 0.00
8:53 am 08:53 Cloudy 52 11.1 50 10 93 93 NNW 13 20 29.93 1013 10 16 0.00 0.00
9:53 am 09:53 Cloudy 53 11.7 49 9.4 86 86 NW 12 19 29.95 1014 10 16 0.00 0.00
10:53 am 10:53 Cloudy 52 11.1 49 9.4 89 89 NNW 12 19 29.95 1014 10 16 0.00 0.00
11:53 am 11:53 Cloudy with Rain 51 10.6 50 10 96 96 NW 6 9 29.96 1015 7 11 0.05 1.27
12:04 pm 12:04 Cloudy with Light Rain 51 10.6 50 10 96 96 NNW 7 11 29.97 1015 7 11 0.04 1.02
12:23 pm 12:23 Cloudy with Light Rain 51 10.6 50 10 96 96 NW 8 13 29.97 1015 10 16 0.05 1.27
12:38 pm 12:38 Cloudy 52 11.1 50 10 93 93 NW 8 13 29.97 1015 10 16 0.05 1.27
12:50 pm 12:50 Cloudy 52 11 50 10 94 94 NNW 9 15 29.97 1015 10 16 0.05 1.27
12:53 pm 12:53 Cloudy 53 11.7 50 10 89 89 NNW 8 13 29.93 1014 10 16 0.05 1.27
1:14 pm 13:14 Cloudy with Light Rain 52 11.1 50 10 93 93 NW 10 17 29.97 1015 10 16 0.00 0.03
1:35 pm 13:35 Cloudy 51 10.6 49 9.4 92 92 NNW 14 22 29.97 1015 10 16 0.00 0.03
1:49 pm 13:49 Cloudy 52 11 48 9 88 88 NW 15 24 29.97 1015 10 16 0.00 0.03
1:53 pm 13:53 Cloudy 51 10.6 49 9.4 92 92 NW 12 19 29.95 1014 10 16 0.00 0.03
2:53 pm 14:53 Cloudy with Light Rain 52 11.1 48 8.9 86 86 NW 12 19 29.96 1014 10 16 0.00 0.03
3:53 pm 15:53 Cloudy 53 11.7 47 8.3 80 80 NW 12 19 29.96 1015 10 16 0.00 0.03
4:53 pm 16:53 Mostly Cloudy 55 12.8 46 7.8 72 72 NNW 14 22 29.96 1014 10 16 0.00 0.00
5:53 pm 17:53 Cloudy 54 12.2 47 8.3 77 77 NW 10 17 29.97 1015 10 16 0.00 0.00
6:53 pm 18:53 Mostly Cloudy 54 12.2 47 8.3 77 77 WNW 7 11 29.98 1015 10 16 0.00 0.00
7:53 pm 19:53 Mostly Cloudy 52 11.1 46 7.8 80 80 WNW 9 15 30.00 1016 10 16 0.00 0.00
8:53 pm 20:53 Mostly Clear 50 10 46 7.8 86 86 WNW 5 7 30.02 1017 10 16 0.00 0.00
9:53 pm 21:53 Mostly Clear 50 10 46 7.8 86 86 WSW 5 7 30.03 1017 10 16 0.00 0.00
10:53 pm 22:53 Clear 49 9.4 45 7.2 86 86 SW 5 7 30.02 1017 10 16 0.00 0.00
11:53 pm 23:53 Clear 48 8.9 45 7.2 89 89 SW 5 7 30.01 1016 10 16 0.00 0.00

Powered by AerisWeather